Location: Unspecified
(43.4680°N, 87.1740°E)
Time: 21:16:47
(UTC+00:00)

Cosmos 1634 Rocket - Pass Details

Date: 17 April 2021
Orbit: 958 x 993 km, 82.9° (Epoch: 12 May)

Event Time Altitude Azimuth Distance (km) Brightness Sun altitude
Rises 14:17:09 0° 179° (S) 3,685 6.7 -14.2°
Reaches altitude 10° 14:19:41 10° 177° (S) 2,737 6.0 -14.6°
Maximum altitude 14:25:55 73° 95° (E) 1,028 3.9 -15.6°
Drops below altitude 10° 14:32:10 10° 12° (NNE) 2,733 6.6 -16.5°
Sets 14:34:41 0° 10° (N) 3,679 7.3 -16.9°
